[[{"header":{"parameterUnit":"m.s-1","parameterCategory":1,"la1":30.2991,"la2":30.254,"lo1":-89.0895,"lo2":-89.0444,"dy":0.0017,"dx":0.0017,"nx":28,"ny":28,"refTime":"2025-09-07T09:00:00:Z","depth":0,"parameterNumber":2,"parameterNumberName":"U-component_of_WINDS"},"data":[0,0,0,0,0,0,0,0,0,0,0,0,0,0,0,0,0,0,0,0,0,0,0,0,0,0,0,0,0,0,0,0,0,0,0,0,0,0,0,0,0,0,0,0,0,0,0,0,0,0,0,0,0,0,0,0,0,0,-1.165,-1.165,0,-1.1638,-1.1637,-1.1637,-1.1594,-1.1593,-1.1592,-1.1591,-1.1579,-1.1579,-1.158,0,0,0,0,0,0,0,0,0,0,0,0,0,-1.1635,-1.1635,-1.165,-1.165,-1.1649,-1.1638,-1.1637,-1.1637,-1.1594,-1.1592,-1.1591,-1.159,-1.1578,-1.1579,-1.158,0,0,0,0,0,0,0,0,0,0,0,0,0,-1.1634,-1.1635,-1.165,-1.1626,-1.1624,-1.1638,-1.1637,-1.1637,-1.1594,-1.1592,-1.1591,-1.159,-1.1578,-1.1579,-1.158,-1.1616,0,0,-1.1583,-1.1583,0,0,0,0,0,0,0,0,-1.1634,-1.1635,-1.163,-1.1628,-1.1625,-1.1616,-1.1628,-1.163,-1.1594,-1.1605,-1.1591,-1.1589,-1.1592,-1.1592,-1.1593,-1.1615,-1.1615,-1.1583,-1.1583,-1.1584,-1.1584,0,0,0,0,0,0,0,-1.1634,-1.1635,-1.1645,-1.163,-1.1627,-1.1616,-1.1614,-1.1628,-1.1607,-1.1604,-1.1601,-1.16,-1.1591,-1.1592,-1.1592,-1.1614,-1.1583,-1.1584,-1.1584,-1.1585,-1.1664,-1.1665,0,0,0,0,0,0,-1.1638,-1.1635,-1.1645,-1.1645,-1.1626,-1.1618,-1.1616,-1.162,-1.1607,-1.1604,-1.1602,-1.1598,-1.1591,-1.1591,-1.1592,-1.1632,-1.1584,-1.1585,-1.1585,-1.1662,-1.1664,-1.1666,0,0,0,0,0,0,-1.1637,-1.1639,-1.1646,-1.1639,-1.1639,-1.162,-1.1625,-1.1621,-1.1622,-1.1605,-1.1601,-1.1607,-1.159,-1.159,-1.161,-1.1631,-1.1585,-1.1586,-1.1661,-1.1663,-1.1665,-1.1713,0,0,0,0,0,0,-1.1637,-1.1639,-1.1653,-1.164,-1.164,-1.1664,-1.1626,-1.1622,-1.1624,-1.1619,-1.1609,-1.1606,-1.1589,-1.1609,-1.1611,-1.1631,-1.1587,-1.1659,-1.1662,-1.1664,-1.1709,-1.1717,-1.1723,0,0,0,0,0,-1.1637,-1.1667,-1.1653,-1.1655,-1.1656,-1.1666,-1.1666,-1.1646,-1.1626,-1.1639,-1.1628,-1.1606,-1.1628,-1.1611,-1.1613,-1.1634,-1.1657,-1.1661,-1.1664,-1.1706,-1.1715,-1.1723,0,0,0,0,0,0,-1.1683,-1.1665,-1.165,-1.1676,-1.1673,-1.1658,-1.1674,-1.1656,-1.1658,-1.1654,-1.1629,-1.1627,-1.165,-1.1644,-1.1625,-1.1667,-1.1639,-1.1643,-1.167,-1.1679,-1.1685,-1.1686,-1.1587,0,0,0,0,0,-1.1697,-1.1706,-1.1689,-1.1714,-1.1713,-1.1694,-1.1698,-1.1682,-1.1678,-1.1676,-1.1666,-1.1663,-1.1669,-1.1673,-1.1678,-1.1708,-1.1705,-1.1724,-1.173,-1.1736,-1.174,-1.1754,-1.1762,-1.1678,-1.1677,-1.1677,0,0,-1.1724,-1.1715,-1.1723,-1.1723,-1.1719,-1.1729,-1.1693,-1.1706,-1.1713,-1.1678,-1.1696,-1.1688,-1.1682,-1.1707,-1.1718,-1.1703,-1.1762,-1.174,-1.1745,-1.1746,-1.1759,-1.1767,-1.1774,-1.168,-1.1679,-1.1679,0,0,-1.178,-1.1774,-1.1794,-1.179,-1.1783,-1.177,-1.1775,-1.1763,-1.1757,-1.1774,-1.1748,-1.1756,-1.1767,-1.1763,-1.1763,-1.1816,-1.1796,-1.1819,-1.1854,-1.1868,-1.1875,-1.1881,-1.1899,-1.1906,-1.1823,-1.1823,-1.1823,0,-1.1815,-1.1829,-1.1807,-1.1821,-1.1821,-1.179,-1.181,-1.1807,-1.1802,-1.1803,-1.1787,-1.18,-1.1794,-1.1817,-1.183,-1.1831,-1.1835,-1.182,-1.1876,-1.1881,-1.1887,-1.1904,-1.1911,-1.1825,-1.1825,-1.1825,-1.1825,0,-1.1873,-1.1883,-1.19,-1.1895,-1.1898,-1.1915,-1.1895,-1.19,-1.1884,-1.1873,-1.189,-1.1882,-1.1884,-1.1888,-1.1873,-1.1909,-1.19,-1.188,-1.1851,-1.1898,-1.1914,-1.192,-1.1829,-1.1828,-1.1827,-1.1827,0,0,-1.1958,-1.194,-1.1947,-1.1944,-1.1934,-1.1941,-1.1956,-1.1958,-1.1963,-1.196,-1.1972,-1.1982,-1.1963,-1.1963,-1.1947,-1.196,-1.2002,-1.1938,-1.1938,-1.195,-1.204,-1.2055,-1.2063,-1.1988,-1.199,-1.199,-1.204,0,-1.201,-1.2035,-1.2015,-1.2043,-1.2052,-1.2021,-1.2034,-1.2029,-1.2019,-1.2025,-1.2013,-1.202,-1.1995,-1.1995,-1.2006,-1.1994,-1.2019,-1.199,-1.1999,-1.1999,-1.2001,-1.2071,-1.2087,-1.2135,-1.2046,-1.2047,-1.2048,0,-1.2075,-1.2075,-1.2104,-1.2091,-1.2094,-1.2106,-1.2105,-1.2111,-1.2105,-1.2096,-1.2095,-1.2076,-1.2089,-1.2061,-1.2079,-1.206,-1.2062,-1.2057,-1.2058,-1.2058,-1.2027,-1.2073,-1.2149,-1.2156,-1.2058,-1.2057,-1.2056,0,-1.2134,-1.2141,-1.2159,-1.2157,-1.2143,-1.2152,-1.2146,-1.2138,-1.214,-1.214,-1.214,-1.2142,-1.2142,-1.2144,-1.2125,-1.2106,-1.2145,-1.2115,-1.2138,-1.2138,-1.2148,-1.2147,-1.2225,-1.215,-1.2149,-1.2149,-1.2149,0,-1.2194,-1.2213,-1.2185,-1.2196,-1.2216,-1.2192,-1.2213,-1.2204,-1.2197,-1.2205,-1.2179,-1.2188,-1.2163,-1.2169,-1.2154,-1.2171,-1.2171,-1.2165,-1.2161,-1.2167,-1.2168,-1.2168,-1.2164,-1.2151,-1.2151,-1.215,-1.215,0,-1.2263,-1.2245,-1.2263,-1.2247,-1.2243,-1.2259,-1.2245,-1.2255,-1.2242,-1.2254,-1.2255,-1.2235,-1.2241,-1.2222,-1.2225,-1.2215,-1.2239,-1.223,-1.2242,-1.2239,-1.2262,-1.226,-1.2343,-1.2352,-1.2271,-1.2272,-1.2273,0,-1.2303,-1.2317,-1.2302,-1.2306,-1.2301,-1.2308,-1.231,-1.2287,-1.2289,-1.2282,-1.2293,-1.2296,-1.2297,-1.2307,-1.2294,-1.2295,-1.2285,-1.2314,-1.2286,-1.2291,-1.2285,-1.2285,-1.2286,-1.232,-1.2321,-1.2322,-1.2323,0,-1.2375,-1.2365,-1.2369,-1.2368,-1.2371,-1.237,-1.2367,-1.2371,-1.2346,-1.2351,-1.2356,-1.2357,-1.2359,-1.2363,-1.2361,-1.2355,-1.2335,-1.2332,-1.2337,-1.2344,-1.235,-1.2346,-1.2257,-1.233,-1.2329,-1.2329,-1.2328,-1.2328,-1.2431,-1.2441,-1.2432,-1.2436,-1.2431,-1.2429,-1.2437,-1.2425,-1.2429,-1.2428,-1.2415,-1.2422,-1.2415,-1.241,-1.2406,-1.2412,-1.2399,-1.2406,-1.2408,-1.241,-1.2414,-1.2349,-1.2412,-1.2411,-1.2411,-1.2411,-1.2411,0,-1.2501,-1.2494,-1.2498,-1.2494,-1.2497,-1.2477,-1.2473,-1.2477,-1.2484,-1.2478,-1.248,-1.2485,-1.2488,-1.2474,-1.2475,-1.2482,-1.2473,-1.2483,-1.2482,-1.2481,-1.2427,-1.2422,-1.2491,-1.2491,-1.2491,-1.2491,-1.249,-1.249,-1.2538,-1.2555,-1.2543,-1.2557,-1.2549,-1.2556,-1.2555,-1.2553,-1.2548,-1.2555,-1.2557,-1.2548,-1.2539,-1.2538,-1.254,-1.2536,-1.2537,-1.2551,-1.2543,-1.2493,-1.2485,-1.2478,-1.2473,-1.2551,-1.2551,-1.2597,-1.2598,-1.2598]},{"header":{"parameterUnit":"m.s-1","parameterCategory":1,"la1":30.2991,"la2":30.254,"lo1":-89.0895,"lo2":-89.0444,"dy":0.0017,"dx":0.0017,"nx":28,"ny":28,"refTime":"2025-09-07T09:00:00:Z","depth":0,"parameterNumber":3,"parameterNumberName":"V-component_of_WINDS"},"data":[0,0,0,0,0,0,0,0,0,0,0,0,0,0,0,0,0,0,0,0,0,0,0,0,0,0,0,0,0,0,0,0,0,0,0,0,0,0,0,0,0,0,0,0,0,0,0,0,0,0,0,0,0,0,0,0,0,0,-4.641,-4.6411,0,-4.6441,-4.6442,-4.6442,-4.6405,-4.6404,-4.6402,-4.6401,-4.6428,-4.643,-4.6432,0,0,0,0,0,0,0,0,0,0,0,0,0,-4.6315,-4.6317,-4.641,-4.6411,-4.6411,-4.6441,-4.6442,-4.6442,-4.6405,-4.6404,-4.6402,-4.64,-4.6427,-4.643,-4.6432,0,0,0,0,0,0,0,0,0,0,0,0,0,-4.6352,-4.6317,-4.641,-4.6396,-4.6395,-4.6441,-4.6442,-4.6442,-4.6406,-4.6403,-4.6401,-4.64,-4.6427,-4.643,-4.6432,-4.6492,0,0,-4.6442,-4.6443,0,0,0,0,0,0,0,0,-4.635,-4.6355,-4.6398,-4.6397,-4.6396,-4.6417,-4.6418,-4.6459,-4.6406,-4.6402,-4.6401,-4.6399,-4.6426,-4.6429,-4.6439,-4.6493,-4.6494,-4.6442,-4.6444,-4.6445,-4.6446,0,0,0,0,0,0,0,-4.6347,-4.6354,-4.6422,-4.6399,-4.6398,-4.6387,-4.639,-4.6425,-4.6425,-4.6402,-4.6399,-4.6404,-4.6425,-4.6436,-4.6439,-4.6495,-4.6442,-4.6444,-4.6446,-4.6447,-4.6598,-4.66,0,0,0,0,0,0,-4.6347,-4.6352,-4.6421,-4.6423,-4.6368,-4.6391,-4.6394,-4.6413,-4.6424,-4.6424,-4.6405,-4.6402,-4.6432,-4.6436,-4.644,-4.6509,-4.6445,-4.6448,-4.6449,-4.6596,-4.6599,-4.6601,0,0,0,0,0,0,-4.6345,-4.6353,-4.642,-4.6387,-4.6395,-4.6394,-4.6416,-4.6414,-4.6425,-4.6427,-4.6426,-4.6417,-4.6431,-4.6436,-4.6479,-4.651,-4.6449,-4.6452,-4.6593,-4.6597,-4.66,-4.6649,0,0,0,0,0,0,-4.6342,-4.6353,-4.6376,-4.6388,-4.6397,-4.646,-4.6417,-4.6416,-4.6431,-4.6427,-4.6438,-4.6438,-4.6429,-4.6475,-4.6482,-4.6513,-4.6454,-4.6591,-4.6595,-4.6599,-4.6645,-4.6654,-4.6661,0,0,0,0,0,-4.6339,-4.6388,-4.6378,-4.6386,-4.6426,-4.6462,-4.6467,-4.6458,-4.6434,-4.6456,-4.6458,-4.6437,-4.6506,-4.648,-4.6488,-4.6519,-4.6589,-4.6594,-4.6599,-4.6641,-4.6652,-4.6661,0,0,0,0,0,0,-4.6378,-4.6389,-4.6378,-4.6432,-4.6447,-4.6456,-4.6484,-4.647,-4.649,-4.6485,-4.6471,-4.6474,-4.652,-4.6524,-4.6495,-4.6577,-4.6543,-4.655,-4.6573,-4.6583,-4.6591,-4.6588,-4.6457,0,0,0,0,0,-4.6393,-4.6423,-4.6431,-4.6478,-4.6486,-4.6484,-4.6499,-4.6491,-4.6505,-4.651,-4.6515,-4.6527,-4.6552,-4.6568,-4.659,-4.6646,-4.6647,-4.6672,-4.668,-4.6687,-4.6692,-4.6721,-4.6731,-4.6617,-4.6617,-4.6617,0,0,-4.6424,-4.6434,-4.6453,-4.6486,-4.6496,-4.6526,-4.6489,-4.6522,-4.6543,-4.6515,-4.6556,-4.656,-4.6573,-4.6623,-4.6645,-4.6628,-4.6724,-4.6693,-4.6699,-4.67,-4.6727,-4.6738,-4.6747,-4.6621,-4.662,-4.662,0,0,-4.6496,-4.6507,-4.6547,-4.6559,-4.6576,-4.6574,-4.6584,-4.6596,-4.6598,-4.664,-4.6619,-4.6643,-4.6686,-4.6696,-4.6707,-4.6784,-4.6765,-4.6792,-4.6834,-4.6862,-4.6871,-4.6879,-4.6905,-4.6915,-4.6798,-4.6798,-4.6798,0,-4.6531,-4.6577,-4.6569,-4.6604,-4.6618,-4.6596,-4.6636,-4.6647,-4.667,-4.6679,-4.6661,-4.6714,-4.6721,-4.6773,-4.6792,-4.6802,-4.6811,-4.6789,-4.6871,-4.6879,-4.6886,-4.691,-4.692,-4.6801,-4.68,-4.68,-4.68,0,-4.6619,-4.6651,-4.6681,-4.6706,-4.6724,-4.6761,-4.6758,-4.6777,-4.6768,-4.6768,-4.681,-4.6819,-4.6843,-4.6855,-4.6846,-4.6905,-4.6894,-4.6874,-4.6838,-4.69,-4.6923,-4.6932,-4.6805,-4.6804,-4.6803,-4.6802,0,0,-4.6713,-4.6735,-4.6746,-4.6757,-4.6774,-4.6798,-4.6834,-4.6859,-4.6875,-4.6892,-4.692,-4.6957,-4.6939,-4.6951,-4.6943,-4.6968,-4.7027,-4.6945,-4.6945,-4.6958,-4.7091,-4.7105,-4.7116,-4.7016,-4.7018,-4.7019,-4.709,0,-4.6784,-4.6847,-4.6842,-4.6902,-4.693,-4.6911,-4.6942,-4.6955,-4.6957,-4.698,-4.6982,-4.7008,-4.6983,-4.699,-4.7014,-4.7015,-4.7053,-4.701,-4.704,-4.7042,-4.7036,-4.7128,-4.7143,-4.7208,-4.7099,-4.71,-4.7101,0,-4.6874,-4.6896,-4.6959,-4.6972,-4.6984,-4.7012,-4.7035,-4.7058,-4.7073,-4.7072,-4.7087,-4.7075,-4.711,-4.7076,-4.7123,-4.7094,-4.7106,-4.7109,-4.7111,-4.7112,-4.7073,-4.7129,-4.7229,-4.7238,-4.7115,-4.7114,-4.7113,0,-4.6934,-4.6979,-4.7023,-4.7033,-4.705,-4.707,-4.7078,-4.7091,-4.7107,-4.7126,-4.7136,-4.7159,-4.7171,-4.7188,-4.7182,-4.7159,-4.723,-4.7196,-4.7228,-4.7229,-4.7242,-4.7241,-4.7343,-4.7254,-4.7254,-4.7254,-4.7253,0,-4.7012,-4.705,-4.705,-4.7076,-4.7119,-4.7113,-4.7155,-4.716,-4.7172,-4.7198,-4.7183,-4.7207,-4.7199,-4.7222,-4.7218,-4.7257,-4.7263,-4.7262,-4.726,-4.7262,-4.7262,-4.7268,-4.7262,-4.7256,-4.7256,-4.7255,-4.7255,0,-4.7085,-4.7087,-4.7132,-4.7146,-4.7151,-4.7181,-4.7192,-4.7216,-4.7218,-4.7251,-4.7258,-4.726,-4.7287,-4.7284,-4.7314,-4.7311,-4.7358,-4.7352,-4.7354,-4.7351,-4.7383,-4.738,-4.7492,-4.7505,-4.7409,-4.741,-4.7411,0,-4.7133,-4.7163,-4.7181,-4.7198,-4.7208,-4.7236,-4.7252,-4.7247,-4.7265,-4.7284,-4.7306,-4.7332,-4.7353,-4.7397,-4.7399,-4.7422,-4.7415,-4.7452,-4.7418,-4.7419,-4.7413,-4.741,-4.7412,-4.7458,-4.7459,-4.746,-4.7461,0,-4.7218,-4.7218,-4.7243,-4.7269,-4.7289,-4.7309,-4.7326,-4.7341,-4.7338,-4.7358,-4.7387,-4.7403,-4.7434,-4.746,-4.7482,-4.7488,-4.7473,-4.7473,-4.7481,-4.7482,-4.7481,-4.748,-4.737,-4.7469,-4.7468,-4.7468,-4.7467,-4.7467,-4.7279,-4.7304,-4.7321,-4.7349,-4.7363,-4.738,-4.7404,-4.7409,-4.7434,-4.746,-4.7456,-4.7487,-4.7501,-4.7529,-4.7538,-4.7562,-4.7548,-4.756,-4.7563,-4.7566,-4.7569,-4.748,-4.7566,-4.7566,-4.7566,-4.7565,-4.7565,0,-4.7361,-4.7372,-4.7399,-4.7425,-4.7447,-4.7435,-4.7454,-4.7472,-4.7501,-4.7516,-4.7538,-4.757,-4.7595,-4.7601,-4.7625,-4.7643,-4.7636,-4.7649,-4.7646,-4.7647,-4.7581,-4.757,-4.7653,-4.7653,-4.7653,-4.7653,-4.7653,-4.7653,-4.7407,-4.7449,-4.7451,-4.7499,-4.7509,-4.7541,-4.7553,-4.7569,-4.7581,-4.7619,-4.764,-4.7645,-4.7656,-4.768,-4.7702,-4.7703,-4.7712,-4.7726,-4.7724,-4.7661,-4.7652,-4.7644,-4.7634,-4.7729,-4.7729,-4.7789,-4.7789,-4.779]}]]